Observations for Trim Patrick St
| Time | AQI | Temp °C | Hum % | Pres Pa | CO μg/m³ | H₂S μg/m³ | NO μg/m³ | NO₂ μg/m³ | O₃ μg/m³ | SO₂ μg/m³ | PM1 μg/m³ | PM2.5 μg/m³ | PM10 μg/m³ |
|---|---|---|---|---|---|---|---|---|---|---|---|---|---|
| Sunday 2 August 2026 | |||||||||||||
| 01:43 | 2 | 14.6 | 71 | 38,460 | 0.23 | 8.03 | 1.74 | 41.72 | 11.7 | 0 | 5.43 | 10.15 | 11.17 |
| 01:42 | 2 | 14.6 | 71 | 38,460 | 0.23 | 6.99 | 1.64 | 38.05 | 15.42 | 0 | 6.29 | 10.83 | 11.92 |
| 01:41 | 2 | 14.6 | 71 | 38,460 | 0.19 | 5.3 | 1.62 | 29.42 | 24.42 | 0 | 7.14 | 12.98 | 14.28 |
| 01:40 | 2 | 14.7 | 71 | 38,460 | 0.19 | 5.12 | 1.8 | 27.36 | 27.09 | 0 | 7.14 | 11.54 | 12.69 |
| 01:39 | 2 | 14.6 | 71 | 38,460 | 0.21 | 4.55 | 1.76 | 26.16 | 28.38 | 0 | 6.29 | 10.11 | 11.12 |
| 01:38 | 2 | 14.6 | 71 | 38,460 | 0.21 | 4.73 | 1.69 | 24.88 | 30.05 | 0 | 6.29 | 10.82 | 11.91 |
| 01:37 | 2 | 14.7 | 71 | 38,460 | 0.19 | 4.91 | 1.86 | 27.02 | 27.53 | 0 | 5.43 | 10.82 | 11.91 |
| 01:36 | 2 | 14.7 | 71 | 38,460 | 0.19 | 5.15 | 1.8 | 25.41 | 29.54 | 0 | 5.43 | 10.82 | 11.91 |
| 01:35 | 2 | 14.7 | 71 | 38,459 | 0.19 | 5.25 | 1.74 | 27.34 | 27.11 | 0 | 5.43 | 11.54 | 12.7 |
| 01:34 | 2 | 14.7 | 71 | 38,459 | 0.19 | 5.17 | 1.67 | 26.37 | 28.34 | 0 | 7.14 | 10.82 | 11.91 |
| 01:33 | 2 | 14.7 | 71 | 38,459 | 0.2 | 5.64 | 1.56 | 27 | 27.55 | 0 | 8 | 12.27 | 13.5 |
| 01:32 | 2 | 14.7 | 71 | 38,459 | 0.2 | 5.54 | 1.46 | 28.3 | 25.96 | 0 | 5.43 | 11.55 | 12.71 |
| 01:31 | 2 | 14.7 | 71 | 38,459 | 0.19 | 5.46 | 1.73 | 27.63 | 26.86 | 0 | 6.29 | 10.84 | 11.93 |
| 01:30 | 2 | 14.7 | 71 | 38,459 | 0.19 | 5.15 | 1.75 | 26.34 | 28.41 | 0 | 5.43 | 11.56 | 12.72 |
| 01:29 | 2 | 14.7 | 71 | 38,459 | 0.19 | 4.99 | 1.86 | 26.98 | 27.6 | 0 | 6.29 | 10.84 | 11.93 |
| 01:28 | 2 | 14.7 | 71 | 38,458 | 0.19 | 4.83 | 1.92 | 24.71 | 30.49 | 0 | 5.43 | 9.42 | 10.36 |
| 01:27 | 2 | 14.7 | 71 | 38,457 | 0.19 | 5.2 | 1.96 | 25.99 | 28.85 | 0 | 6.29 | 11.58 | 12.73 |
| 01:26 | 2 | 14.7 | 71 | 38,456 | 0.19 | 5.41 | 1.67 | 27.28 | 27.29 | 0 | 6.29 | 10.86 | 11.94 |
| 01:25 | 2 | 14.7 | 71 | 38,454 | 0.19 | 5.88 | 1.77 | 27.28 | 27.25 | 0 | 2.86 | 7.98 | 8.78 |
| 01:24 | 2 | 14.7 | 71 | 38,452 | 0.19 | 5.62 | 1.65 | 28.93 | 25.26 | 0 | 6.29 | 11.58 | 12.73 |